CW6413 Weather Reports


time (UTC)temp
C
wind
direction
speed
KPH
gust
KPH
rain 1hr
cm
rain 24hr
cm
rain mn
cm
humidity
%
barometer
mb
20260507220807 12 224 4.8 11.3 0.00 0.00 0.00 83 1011.3
20260507220306 12 243 4.8 11.3 0.00 0.00 0.00 82 1011.3
20260507215806 12 206 4.8 11.3 0.00 0.00 0.00 81 1011.3
20260507215307 12 258 6.4 11.3 0.00 0.00 0.00 81 1011.4
20260507214306 12 202 11.3 16.1 0.00 0.00 0.00 80 1011.4
20260507212807 12 227 4.8 8.0 0.00 0.00 0.00 81 1011.4
20260507212307 12 228 4.8 9.7 0.00 0.00 0.00 81 1011.3
20260507211306 12 256 4.8 11.3 0.00 0.00 0.00 81 1011.3
20260507210806 12 189 4.8 11.3 0.00 0.00 0.00 81 1011.3
20260507210306 12 199 6.4 11.3 0.00 0.00 0.00 82 1011.3
20260507205806 12 196 8.0 12.9 0.00 0.00 0.00 81 1011.3
20260507205307 12 198 11.3 16.1 0.00 0.00 0.00 81 1011.3
20260507204806 12 189 8.0 12.9 0.00 0.00 0.00 81 1011.3
20260507204307 12 247 4.8 8.0 0.00 0.00 0.00 82 1011.3
20260507203806 12 203 4.8 9.7 0.00 0.00 0.00 82 1011.3
20260507203306 12 205 4.8 9.7 0.00 0.00 0.00 82 1011.4
20260507202806 12 225 4.8 9.7 0.00 0.00 0.00 81 1011.4
20260507202307 12 260 4.8 12.9 0.00 0.00 0.00 82 1011.5
20260507201807 12 254 6.4 12.9 0.00 0.00 0.00 83 1011.5
20260507201306 12 265 8.0 11.3 0.00 0.00 0.00 82 1011.7
20260507200806 12 211 6.4 11.3 0.00 0.00 0.00 82 1011.6
20260507200306 12 219 8.0 11.3 0.00 0.00 0.00 82 1011.6
20260507195306 12 186 6.4 14.5 0.00 0.00 0.00 79 1011.6
20260507194807 12 240 8.0 16.1 0.00 0.00 0.00 81 1011.7
20260507192806 12 224 3.2 11.3 0.00 0.00 0.00 80 1012.2
20260507192307 12 182 4.8 8.0 0.00 0.00 0.00 79 1012.1
20260507191806 12 201 3.2 4.8 0.00 0.00 0.00 80 1012.0
20260507191306 12 137 3.2 8.0 0.00 0.00 0.00 81 1012.1
20260507190306 12 156 8.0 9.7 0.00 0.00 0.00 80 1012.4
20260507185806 12 212 4.8 8.0 0.00 0.00 0.00 81 1012.4
20260507185306 12 217 4.8 11.3 0.00 0.00 0.00 81 1012.3
20260507184306 12 182 8.0 9.7 0.00 0.00 0.00 80 1012.4
20260507183306 11 175 8.0 11.3 0.00 0.00 0.00 81 1012.5
20260507182806 11 168 6.4 11.3 0.00 0.00 0.00 82 1012.5
20260507182307 11 190 9.7 12.9 0.00 0.00 0.00 82 1012.4
20260507181806 11 194 11.3 12.9 0.00 0.00 0.00 84 1012.5
20260507181306 12 155 6.4 11.3 0.00 0.00 0.00 82 1012.4
20260507180806 12 195 9.7 14.5 0.00 0.00 0.00 80 1012.6
20260507180306 12 158 4.8 12.9 0.00 0.00 0.00 80 1012.7
20260507175806 12 186 9.7 12.9 0.00 0.00 0.00 79 1012.6
20260507175307 12 142 1.6 9.7 0.00 0.00 0.00 81 1012.4
20260507174806 12 194 1.6 8.0 0.00 0.00 0.00 81 1012.4
20260507173806 11 157 1.6 8.0 0.00 0.00 0.00 82 1012.9
20260507173306 11 102 3.2 8.0 0.00 0.00 0.00 84 1012.6
20260507172806 12 75 1.6 8.0 0.00 0.00 0.00 82 1013.0
20260507172308 12 151 3.2 8.0 0.00 0.00 0.00 82 1012.9
20260507171806 12 239 1.6 8.0 0.00 0.00 0.00 82 1013.0
20260507171306 11 150 3.2 8.0 0.00 0.00 0.00 84 1013.0
20260507170806 12 138 3.2 8.0 0.00 0.00 0.00 84 1013.1
20260507170307 11 95 1.6 4.8 0.00 0.00 0.00 85 1013.2
20260507165307 11 149 1.6 4.8 0.00 0.00 0.00 84 1013.5
20260507164306 11 85 3.2 8.0 0.00 0.00 0.00 85 1013.3
20260507163806 11 44 3.2 8.0 0.00 0.00 0.00 84 1013.5
20260507163306 11 8 1.6 8.0 0.00 0.00 0.00 83 1013.5
20260507162806 11 37 1.6 4.8 0.00 0.00 0.00 84 1013.5
20260507162307 11 116 1.6 8.0 0.00 0.00 0.00 86 1013.6
20260507161806 11 58 1.6 4.8 0.00 0.00 0.00 84 1013.7
20260507161306 11 84 4.8 8.0 0.00 0.00 0.00 86 1013.7
20260507160806 11 157 4.8 8.0 0.00 0.00 0.00 85 1013.9
20260507160306 10 156 1.6 3.2 0.00 0.00 0.00 86 1014.0
20260507155806 10 142 3.2 4.8 0.00 0.00 0.00 84 1014.2
20260507155306 10 141 4.8 8.0 0.00 0.00 0.00 85 1014.2
20260507154806 11 150 3.2 4.8 0.00 0.00 0.00 88 1014.2
20260507154306 11 155 4.8 4.8 0.00 0.00 0.00 87 1014.0
20260507153806 11 192 4.8 8.0 0.00 0.00 0.00 85 1014.2
20260507153306 11 84 0.0 3.2 0.00 0.00 0.00 84 1014.0
20260507152806 11 154 1.6 4.8 0.00 0.00 0.00 84 1014.2
20260507152306 11 148 4.8 4.8 0.00 0.00 0.00 84 1014.0
20260507151806 11 89 3.2 4.8 0.00 0.00 0.00 85 1013.8
20260507151306 11 57 1.6 3.2 0.00 0.00 0.00 85 1013.8
20260507150806 11 137 0.0 1.6 0.00 0.00 0.00 87 1014.0
20260507150306 11 137 0.0 4.8 0.00 0.00 0.00 87 1014.1
20260507145307 11 78 4.8 8.0 0.00 0.00 0.00 87 1013.9
20260507144806 11 104 1.6 3.2 0.00 0.00 0.00 87 1014.2
20260507144307 11 64 0.0 0.0 0.00 0.00 0.00 86 1014.2
20260507143806 11 91 1.6 4.8 0.00 0.00 0.00 86 1014.3
20260507143306 11 82 3.2 4.8 0.00 0.00 0.00 87 1014.2
20260507142806 11 77 1.6 3.2 0.00 0.00 0.00 87 1014.3
20260507142307 11 107 1.6 3.2 0.00 0.00 0.00 86 1014.4
20260507141807 11 111 1.6 4.8 0.00 0.00 0.00 87 1014.3
20260507141306 11 85 3.2 8.0 0.00 0.00 0.00 88 1014.4
20260507140806 11 91 0.0 4.8 0.00 0.00 0.00 88 1014.3
20260507140306 11 111 4.8 11.3 0.00 0.00 0.00 88 1014.5
20260507134806 11 97 4.8 8.0 0.00 0.00 0.00 89 1014.4
20260507134306 11 137 3.2 8.0 0.00 0.00 0.00 89 1014.6
20260507133806 11 171 3.2 8.0 0.00 0.00 0.00 89 1014.6
20260507132806 11 134 1.6 4.8 0.00 0.00 0.00 90 1014.5
20260507132307 11 111 3.2 8.0 0.00 0.00 0.00 90 1014.4
20260507131806 11 104 4.8 8.0 0.00 0.00 0.00 89 1014.3
20260507131306 11 131 3.2 8.0 0.00 0.00 0.00 90 1014.3
20260507130806 11 125 3.2 4.8 0.00 0.00 0.00 90 1014.2
20260507130306 11 158 0.0 3.2 0.00 0.00 0.00 90 1014.3
20260507125807 11 140 0.0 3.2 0.00 0.00 0.00 91 1014.3
20260507125307 11 123 1.6 4.8 0.00 0.00 0.00 90 1014.2
20260507124806 11 95 3.2 4.8 0.00 0.00 0.00 90 1014.2
20260507124306 11 125 1.6 3.2 0.00 0.00 0.00 92 1014.2
20260507122806 11 210 3.2 4.8 0.00 0.00 0.00 94 1014.3
20260507122307 11 240 1.6 4.8 0.00 0.00 0.00 94 1014.3
20260507121805 11 193 3.2 4.8 0.00 0.00 0.00 93 1014.1
20260507121306 11 211 3.2 4.8 0.00 0.00 0.00 94 1014.1
20260507120806 11 195 3.2 4.8 0.00 0.00 0.00 94 1013.9
20260507120306 11 206 1.6 4.8 0.00 0.00 0.00 95 1013.9
20260507115806 11 208 3.2 4.8 0.00 0.00 0.00 95 1014.0
20260507115307 11 198 3.2 4.8 0.00 0.00 0.00 94 1014.0
20260507114805 11 158 0.0 3.2 0.00 0.00 0.00 95 1014.0
20260507114306 11 223 0.0 1.6 0.00 0.00 0.00 95 1014.0
20260507113306 11 61 0.0 0.0 0.00 0.00 0.00 96 1013.8
20260507112806 11 61 0.0 0.0 0.00 0.00 0.00 96 1013.7
20260507112307 11 61 0.0 3.2 0.00 0.00 0.00 96 1013.6
20260507111806 11 317 0.0 3.2 0.00 0.00 0.00 96 1013.8
20260507111306 11 39 1.6 4.8 0.00 0.00 0.00 96 1013.7
20260507110806 11 309 1.6 4.8 0.00 0.00 0.00 95 1013.6
20260507110306 11 19 4.8 8.0 0.00 0.00 0.00 95 1013.5
20260507105805 11 247 0.0 0.0 0.00 0.00 0.00 95 1013.4
20260507105307 11 247 0.0 3.2 0.00 0.00 0.00 95 1013.4
20260507104806 11 258 3.2 3.2 0.00 0.00 0.00 95 1013.4
20260507104306 11 306 1.6 3.2 0.00 0.00 0.00 95 1013.3
20260507103806 11 206 0.0 3.2 0.00 0.00 0.00 95 1013.3
20260507103306 11 204 3.2 4.8 0.00 0.00 0.00 95 1013.4
20260507102806 11 164 3.2 4.8 0.00 0.00 0.00 95 1013.4
20260507102307 11 204 3.2 4.8 0.00 0.00 0.00 95 1013.5
20260507101806 11 176 0.0 3.2 0.00 0.00 0.00 95 1013.4
20260507101306 11 222 0.0 4.8 0.00 0.00 0.00 95 1013.4
20260507100806 11 140 3.2 4.8 0.00 0.00 0.00 95 1013.5
20260507100305 11 56 0.0 3.2 0.00 0.00 0.00 95 1013.5
20260507095806 11 23 3.2 4.8 0.00 0.00 0.00 95 1013.3
20260507095306 11 346 1.6 4.8 0.00 0.00 0.00 95 1013.2
20260507094806 11 260 3.2 4.8 0.00 0.00 0.00 95 1013.2
20260507094305 11 276 0.0 4.8 0.00 0.00 0.00 95 1013.2
20260507093306 11 241 1.6 4.8 0.00 0.00 0.00 95 1013.1
20260507092806 11 181 4.8 8.0 0.00 0.00 0.00 95 1013.0
20260507091306 11 220 3.2 4.8 0.00 0.00 0.00 95 1013.2
20260507090806 11 192 3.2 9.7 0.00 0.00 0.00 95 1013.2
20260507090306 11 207 6.4 9.7 0.00 0.00 0.00 95 1013.3
20260507085306 11 215 1.6 4.8 0.00 0.00 0.00 95 1013.1
20260507084806 11 195 4.8 8.0 0.00 0.00 0.00 95 1012.9
20260507084306 12 180 3.2 4.8 0.00 0.00 0.00 95 1012.7
20260507082806 12 219 4.8 9.7 0.00 0.00 0.00 95 1012.7
20260507082307 12 215 3.2 9.7 0.00 0.00 0.00 95 1012.8
20260507081805 12 231 3.2 4.8 0.00 0.00 0.00 95 1012.8
20260507081306 12 226 1.6 4.8 0.00 0.00 0.00 95 1012.8
20260507080806 12 244 1.6 4.8 0.00 0.00 0.00 95 1012.9
20260507080305 12 220 3.2 4.8 0.00 0.00 0.00 95 1012.7
20260507075307 12 245 4.8 8.0 0.00 0.00 0.00 95 1012.9
20260507074806 12 260 0.0 4.8 0.00 0.00 0.00 95 1012.7
20260507074305 12 209 6.4 9.7 0.00 0.00 0.00 95 1012.7
20260507073806 12 204 1.6 8.0 0.00 0.00 0.00 95 1012.5
20260507072806 12 232 4.8 8.0 0.00 0.00 0.00 95 1012.2
20260507071806 13 229 1.6 3.2 0.00 0.00 0.00 95 1011.9
20260507071306 13 32 0.0 3.2 0.00 0.00 0.00 95 1012.0
20260507070805 13 90 3.2 11.3 0.00 0.00 0.00 95 1012.1
20260507070306 13 177 6.4 12.9 0.00 0.00 0.00 95 1011.9
20260507065806 13 200 3.2 9.7 0.00 0.00 0.00 95 1012.0
20260507065306 13 181 4.8 11.3 0.00 0.00 0.00 95 1011.8
20260507064806 13 127 0.0 9.7 0.00 0.00 0.00 95 1011.9
20260507064306 13 192 4.8 9.7 0.00 0.00 0.00 95 1012.1
20260507063806 13 167 8.0 9.7 0.00 0.00 0.00 95 1012.0
20260507063305 13 217 3.2 4.8 0.00 0.00 0.00 95 1012.0
20260507062806 14 177 8.0 11.3 0.00 0.00 0.00 95 1012.1
20260507062306 15 134 6.4 14.5 0.00 0.00 0.00 95 1011.9
20260507061805 15 95 8.0 14.5 0.00 0.00 0.00 95 1012.1
20260507061306 15 96 3.2 9.7 0.00 0.00 0.00 95 1012.1
20260507060806 15 205 3.2 4.8 0.00 0.00 0.00 95 1012.0
20260507055806 16 167 4.8 9.7 0.00 0.00 0.00 95 1012.1
20260507055306 16 158 4.8 8.0 0.00 0.00 0.00 95 1012.2
20260507054806 16 67 0.0 4.8 0.00 0.00 0.00 95 1012.3
20260507054306 16 37 4.8 8.0 0.00 0.00 0.00 95 1012.3
20260507053306 16 65 1.6 9.7 0.00 0.00 0.00 95 1011.9
20260507052806 16 100 1.6 4.8 0.00 0.00 0.00 95 1011.7
20260507052306 16 34 1.6 4.8 0.00 0.00 0.00 95 1011.7
20260507051805 16 355 6.4 9.7 0.00 0.00 0.00 95 1011.7
20260507050806 16 337 4.8 8.0 0.00 0.00 0.00 95 1011.3
20260507050305 16 37 1.6 4.8 0.00 0.00 0.00 95 1010.8
20260507045806 16 210 0.0 3.2 0.00 0.00 0.00 95 1010.8
20260507045306 16 156 4.8 8.0 0.00 0.00 0.00 95 1011.0
20260507044806 16 162 3.2 8.0 0.00 0.00 0.00 95 1011.6
20260507044306 16 139 1.6 4.8 0.00 0.00 0.00 95 1011.9
20260507043806 17 259 0.0 3.2 0.00 0.00 0.00 95 1012.0
20260507043306 17 283 3.2 4.8 0.00 0.00 0.00 95 1012.0
20260507042307 17 137 3.2 8.0 0.00 0.00 0.00 95 1011.4
20260507041805 17 73 0.0 4.8 0.00 0.00 0.00 95 1011.6
20260507041306 17 55 3.2 8.0 0.00 0.00 0.00 95 1012.0
20260507040805 17 328 4.8 8.0 0.00 0.00 0.00 95 1011.9
20260507040306 17 0 4.8 4.8 0.00 0.00 0.00 95 1011.8
20260507035806 16 339 4.8 8.0 0.00 0.00 0.00 95 1011.9
20260507035306 16 267 4.8 4.8 0.00 0.00 0.00 95 1011.7
20260507034810 16 316 0.0 3.2 0.00 0.00 0.00 95 1011.7
20260507034306 16 15 3.2 4.8 0.00 0.00 0.00 95 1011.9
20260507033806 16 351 4.8 4.8 0.00 0.00 0.00 95 1012.1
20260507033305 17 106 1.6 4.8 0.00 0.00 0.00 95 1012.0
20260507032806 17 217 1.6 4.8 0.00 0.00 0.00 95 1012.2
20260507031806 16 281 4.8 8.0 0.00 0.00 0.00 95 1012.2
20260507031306 16 310 4.8 4.8 0.00 0.00 0.00 95 1011.8
20260507030806 16 225 0.0 1.6 0.00 0.00 0.00 95 1011.7
20260507030306 17 51 0.0 4.8 0.00 0.00 0.00 95 1011.5
20260507025806 16 313 4.8 8.0 0.00 0.00 0.00 95 1011.6
20260507025306 16 282 4.8 4.8 0.00 0.00 0.00 95 1011.8
20260507024805 17 315 3.2 4.8 0.00 0.00 0.00 96 1011.7
20260507024306 17 333 4.8 4.8 0.00 0.00 0.00 96 1011.6
20260507023806 17 277 3.2 4.8 0.00 0.00 0.00 95 1011.8
20260507023305 16 290 4.8 8.0 0.00 0.00 0.00 95 1011.7
20260507022806 17 285 3.2 4.8 0.00 0.00 0.00 94 1011.6
20260507022306 17 238 0.0 3.2 0.00 0.00 0.00 94 1011.4
20260507021806 17 354 3.2 3.2 0.00 0.00 0.00 92 1011.2
20260507021305 17 312 4.8 8.0 0.00 0.00 0.00 93 1011.4
20260507020806 17 314 4.8 8.0 0.00 0.00 0.00 93 1011.4
20260507020306 17 276 3.2 4.8 0.00 0.00 0.00 93 1011.3
20260507015806 17 293 3.2 4.8 0.00 0.00 0.00 93 1011.3
20260507015306 17 311 4.8 4.8 0.00 0.00 0.00 93 1011.3
20260507014306 17 354 0.0 3.2 0.00 0.00 0.00 91 1010.8
20260507013805 17 13 0.0 3.2 0.00 0.00 0.00 91 1010.7
20260507013306 17 231 0.0 0.0 0.00 0.00 0.00 91 1011.1
20260507012307 18 156 1.6 4.8 0.00 0.00 0.00 88 1011.1
20260507011805 18 262 1.6 4.8 0.00 0.00 0.00 88 1011.3
20260507011306 18 305 3.2 8.0 0.00 0.00 0.00 86 1011.3
20260507010305 18 269 6.4 11.3 0.00 0.00 0.00 84 1011.4
20260507005805 18 261 6.4 11.3 0.00 0.00 0.00 84 1011.5
20260507005306 18 254 8.0 11.3 0.00 0.00 0.00 84 1011.4
20260507004806 18 252 4.8 8.0 0.00 0.00 0.00 84 1011.3
20260507004306 18 248 3.2 9.7 0.00 0.00 0.00 85 1011.4
20260507003806 18 245 3.2 4.8 0.00 0.00 0.00 86 1011.4
20260507003305 18 239 3.2 8.0 0.00 0.00 0.00 84 1011.3
20260507002806 18 260 4.8 9.7 0.00 0.00 0.00 84 1011.3
20260507002306 19 256 6.4 12.9 0.00 0.00 0.00 83 1011.4
20260507001806 19 272 4.8 11.3 0.00 0.00 0.00 83 1011.2
20260507001306 19 254 6.4 11.3 0.00 0.00 0.00 82 1011.1
20260507000806 19 299 4.8 9.7 0.00 0.00 0.00 82 1011.0
20260507000306 20 267 4.8 11.3 0.00 0.00 0.00 81 1010.9
20260506235806 20 251 6.4 11.3 0.00 0.00 0.00 80 1010.9
20260506235307 20 227 8.0 11.3 0.00 0.00 0.00 80 1010.8
20260506233805 20 242 3.2 9.7 0.00 0.00 0.00 80 1011.0
20260506233306 20 248 4.8 11.3 0.00 0.00 0.00 81 1011.1
20260506232806 20 231 3.2 9.7 0.00 0.00 0.00 80 1011.1
20260506232306 20 199 9.7 14.5 0.00 0.00 0.00 79 1011.0
20260506231805 20 200 9.7 14.5 0.00 0.00 0.00 79 1011.0
20260506231305 20 202 8.0 11.3 0.00 0.00 0.00 78 1011.0
20260506230805 20 230 4.8 8.0 0.00 0.00 0.00 78 1010.8
20260506230306 20 209 3.2 11.3 0.00 0.00 0.00 78 1010.6
20260506225806 20 223 4.8 9.7 0.00 0.00 0.00 77 1010.6
20260506225306 20 237 8.0 12.9 0.00 0.00 0.00 77 1010.6
20260506224806 20 206 8.0 11.3 0.00 0.00 0.00 77 1010.5
20260506224305 20 205 4.8 9.7 0.00 0.00 0.00 77 1010.5
20260506223806 20 202 6.4 12.9 0.00 0.00 0.00 77 1010.7
20260506223305 20 199 9.7 12.9 0.00 0.00 0.00 76 1010.5
20260506222805 20 201 6.4 9.7 0.00 0.00 0.00 76 1010.7
20260506222306 21 221 4.8 9.7 0.00 0.00 0.00 77 1010.7
20260506221806 21 222 4.8 8.0 0.00 0.00 0.00 76 1010.7
20260506221305 21 197 4.8 9.7 0.00 0.00 0.00 76 1010.6